Directory Listing
Index of /dewikinews/20251220/

Index of /dewikinews/20251220/


../
dewikinews-20251220-all-titles-in-ns0.gz           20-Dec-2025 23:48    319K
dewikinews-20251220-all-titles.gz                  20-Dec-2025 23:48    868K
dewikinews-20251220-babel.sql.gz                   20-Dec-2025 23:41    1750
dewikinews-20251220-category.sql.gz                20-Dec-2025 23:41    177K
dewikinews-20251220-categorylinks.sql.gz           20-Dec-2025 23:40      2M
dewikinews-20251220-change_tag.sql.gz              20-Dec-2025 23:41    258K
dewikinews-20251220-change_tag_def.sql.gz          20-Dec-2025 23:41    1328
dewikinews-20251220-externallinks.sql.gz           20-Dec-2025 23:41      2M
dewikinews-20251220-geo_tags.sql.gz                20-Dec-2025 23:41     884
dewikinews-20251220-image.sql.gz                   20-Dec-2025 23:40    6580
dewikinews-20251220-imagelinks.sql.gz              20-Dec-2025 23:40    368K
dewikinews-20251220-iwlinks.sql.gz                 20-Dec-2025 23:41      1M
dewikinews-20251220-langlinks.sql.gz               20-Dec-2025 23:41    768K
dewikinews-20251220-linktarget.sql.gz              20-Dec-2025 23:41   1016K
dewikinews-20251220-md5sums.json                   20-Dec-2025 23:48    2897
dewikinews-20251220-md5sums.txt                    20-Dec-2025 23:48    2697
dewikinews-20251220-page.sql.gz                    20-Dec-2025 23:41      2M
dewikinews-20251220-page_props.sql.gz              20-Dec-2025 23:41    437K
dewikinews-20251220-page_restrictions.sql.gz       20-Dec-2025 23:41    127K
dewikinews-20251220-pagelinks.sql.gz               20-Dec-2025 23:40    761K
dewikinews-20251220-pages-articles-multistream-..> 20-Dec-2025 23:45    510K
dewikinews-20251220-pages-articles-multistream...> 20-Dec-2025 23:45     21M
dewikinews-20251220-pages-articles.xml.bz2         20-Dec-2025 23:42     18M
dewikinews-20251220-pages-logging.xml.gz           20-Dec-2025 23:48      4M
dewikinews-20251220-pages-meta-current.xml.bz2     20-Dec-2025 23:46     26M
dewikinews-20251220-protected_titles.sql.gz        20-Dec-2025 23:41    2332
dewikinews-20251220-redirect.sql.gz                20-Dec-2025 23:41     10K
dewikinews-20251220-runsettings.txt                20-Dec-2025 20:54      28
dewikinews-20251220-sha1sums.json                  20-Dec-2025 23:48    3186
dewikinews-20251220-sha1sums.txt                   20-Dec-2025 23:48    2985
dewikinews-20251220-site_stats.sql.gz              20-Dec-2025 23:40     844
dewikinews-20251220-siteinfo-namespaces.json.gz    20-Dec-2025 23:48    6627
dewikinews-20251220-siteinfo2-namespacesv2.json.gz 20-Dec-2025 23:48    6891
dewikinews-20251220-sites.sql.gz                   20-Dec-2025 23:41     23K
dewikinews-20251220-stub-articles.xml.gz           20-Dec-2025 21:01      4M
dewikinews-20251220-stub-meta-current.xml.gz       20-Dec-2025 21:01      6M
dewikinews-20251220-stub-meta-history.xml.gz       20-Dec-2025 21:01     60M
dewikinews-20251220-templatelinks.sql.gz           20-Dec-2025 23:40    283K
dewikinews-20251220-user_former_groups.sql.gz      20-Dec-2025 23:41     879
dewikinews-20251220-user_groups.sql.gz             20-Dec-2025 23:41     948
dewikinews-20251220-wbc_entity_usage.sql.gz        20-Dec-2025 23:41    279K
dumpruninfo.json                                   20-Dec-2025 23:48    2568
dumpruninfo.txt                                    20-Dec-2025 23:48    2208
dumpspecialfiles.json                              20-Dec-2025 23:48     131
dumpstatus.json                                    20-Dec-2025 23:48     11K
md5sums-dewikinews-20251220-all-titles-in-ns0.g..> 20-Dec-2025 23:48      75
md5sums-dewikinews-20251220-all-titles.gz.txt      20-Dec-2025 23:48      68
md5sums-dewikinews-20251220-babel.sql.gz.txt       20-Dec-2025 23:41      67
md5sums-dewikinews-20251220-category.sql.gz.txt    20-Dec-2025 23:41      70
md5sums-dewikinews-20251220-categorylinks.sql.g..> 20-Dec-2025 23:40      75
md5sums-dewikinews-20251220-change_tag.sql.gz.txt  20-Dec-2025 23:41      72
md5sums-dewikinews-20251220-change_tag_def.sql...> 20-Dec-2025 23:41      76
md5sums-dewikinews-20251220-externallinks.sql.g..> 20-Dec-2025 23:41      75
md5sums-dewikinews-20251220-geo_tags.sql.gz.txt    20-Dec-2025 23:41      70
md5sums-dewikinews-20251220-image.sql.gz.txt       20-Dec-2025 23:40      67
md5sums-dewikinews-20251220-imagelinks.sql.gz.txt  20-Dec-2025 23:40      72
md5sums-dewikinews-20251220-iwlinks.sql.gz.txt     20-Dec-2025 23:41      69
md5sums-dewikinews-20251220-langlinks.sql.gz.txt   20-Dec-2025 23:41      71
md5sums-dewikinews-20251220-linktarget.sql.gz.txt  20-Dec-2025 23:41      72
md5sums-dewikinews-20251220-page.sql.gz.txt        20-Dec-2025 23:41      66
md5sums-dewikinews-20251220-page_props.sql.gz.txt  20-Dec-2025 23:41      72
md5sums-dewikinews-20251220-page_restrictions.s..> 20-Dec-2025 23:41      79
md5sums-dewikinews-20251220-pagelinks.sql.gz.txt   20-Dec-2025 23:40      71
md5sums-dewikinews-20251220-pages-articles-mult..> 20-Dec-2025 23:45      95
md5sums-dewikinews-20251220-pages-articles-mult..> 20-Dec-2025 23:45      89
md5sums-dewikinews-20251220-pages-articles.xml...> 20-Dec-2025 23:42      77
md5sums-dewikinews-20251220-pages-logging.xml.g..> 20-Dec-2025 23:48      75
md5sums-dewikinews-20251220-pages-meta-current...> 20-Dec-2025 23:46      81
md5sums-dewikinews-20251220-protected_titles.sq..> 20-Dec-2025 23:41      78
md5sums-dewikinews-20251220-redirect.sql.gz.txt    20-Dec-2025 23:41      70
md5sums-dewikinews-20251220-site_stats.sql.gz.txt  20-Dec-2025 23:40      72
md5sums-dewikinews-20251220-siteinfo-namespaces..> 20-Dec-2025 23:48      82
md5sums-dewikinews-20251220-siteinfo2-namespace..> 20-Dec-2025 23:48      85
md5sums-dewikinews-20251220-sites.sql.gz.txt       20-Dec-2025 23:41      67
md5sums-dewikinews-20251220-stub-articles.xml.g..> 20-Dec-2025 21:01      75
md5sums-dewikinews-20251220-stub-meta-current.x..> 20-Dec-2025 21:01      79
md5sums-dewikinews-20251220-stub-meta-history.x..> 20-Dec-2025 21:01      79
md5sums-dewikinews-20251220-templatelinks.sql.g..> 20-Dec-2025 23:41      75
md5sums-dewikinews-20251220-user_former_groups...> 20-Dec-2025 23:41      80
md5sums-dewikinews-20251220-user_groups.sql.gz.txt 20-Dec-2025 23:41      73
md5sums-dewikinews-20251220-wbc_entity_usage.sq..> 20-Dec-2025 23:41      78
report.json                                        20-Dec-2025 23:48    5983
sha1sums-dewikinews-20251220-all-titles-in-ns0...> 20-Dec-2025 23:48      83
sha1sums-dewikinews-20251220-all-titles.gz.txt     20-Dec-2025 23:48      76
sha1sums-dewikinews-20251220-babel.sql.gz.txt      20-Dec-2025 23:41      75
sha1sums-dewikinews-20251220-category.sql.gz.txt   20-Dec-2025 23:41      78
sha1sums-dewikinews-20251220-categorylinks.sql...> 20-Dec-2025 23:40      83
sha1sums-dewikinews-20251220-change_tag.sql.gz.txt 20-Dec-2025 23:41      80
sha1sums-dewikinews-20251220-change_tag_def.sql..> 20-Dec-2025 23:41      84
sha1sums-dewikinews-20251220-externallinks.sql...> 20-Dec-2025 23:41      83
sha1sums-dewikinews-20251220-geo_tags.sql.gz.txt   20-Dec-2025 23:41      78
sha1sums-dewikinews-20251220-image.sql.gz.txt      20-Dec-2025 23:40      75
sha1sums-dewikinews-20251220-imagelinks.sql.gz.txt 20-Dec-2025 23:40      80
sha1sums-dewikinews-20251220-iwlinks.sql.gz.txt    20-Dec-2025 23:41      77
sha1sums-dewikinews-20251220-langlinks.sql.gz.txt  20-Dec-2025 23:41      79
sha1sums-dewikinews-20251220-linktarget.sql.gz.txt 20-Dec-2025 23:41      80
sha1sums-dewikinews-20251220-page.sql.gz.txt       20-Dec-2025 23:41      74
sha1sums-dewikinews-20251220-page_props.sql.gz.txt 20-Dec-2025 23:41      80
sha1sums-dewikinews-20251220-page_restrictions...> 20-Dec-2025 23:41      87
sha1sums-dewikinews-20251220-pagelinks.sql.gz.txt  20-Dec-2025 23:40      79
sha1sums-dewikinews-20251220-pages-articles-mul..> 20-Dec-2025 23:45     103
sha1sums-dewikinews-20251220-pages-articles-mul..> 20-Dec-2025 23:45      97
sha1sums-dewikinews-20251220-pages-articles.xml..> 20-Dec-2025 23:42      85
sha1sums-dewikinews-20251220-pages-logging.xml...> 20-Dec-2025 23:48      83
sha1sums-dewikinews-20251220-pages-meta-current..> 20-Dec-2025 23:46      89
sha1sums-dewikinews-20251220-protected_titles.s..> 20-Dec-2025 23:41      86
sha1sums-dewikinews-20251220-redirect.sql.gz.txt   20-Dec-2025 23:41      78
sha1sums-dewikinews-20251220-site_stats.sql.gz.txt 20-Dec-2025 23:40      80
sha1sums-dewikinews-20251220-siteinfo-namespace..> 20-Dec-2025 23:48      90
sha1sums-dewikinews-20251220-siteinfo2-namespac..> 20-Dec-2025 23:48      93
sha1sums-dewikinews-20251220-sites.sql.gz.txt      20-Dec-2025 23:41      75
sha1sums-dewikinews-20251220-stub-articles.xml...> 20-Dec-2025 21:01      83
sha1sums-dewikinews-20251220-stub-meta-current...> 20-Dec-2025 21:01      87
sha1sums-dewikinews-20251220-stub-meta-history...> 20-Dec-2025 21:01      87
sha1sums-dewikinews-20251220-templatelinks.sql...> 20-Dec-2025 23:41      83
sha1sums-dewikinews-20251220-user_former_groups..> 20-Dec-2025 23:41      88
sha1sums-dewikinews-20251220-user_groups.sql.gz..> 20-Dec-2025 23:41      81
sha1sums-dewikinews-20251220-wbc_entity_usage.s..> 20-Dec-2025 23:41      86
status.html                                        20-Dec-2025 23:48     115
tableinfo.json                                     20-Dec-2025 08:38    1495